CALSPHERE 1 1 00900U 64063C 12039.38122123 .00000379 00000-0 41298-3 0 6099 2 00900 90.1456 342.3983 0025749 220.6825 139.2417 13.71057660351822 CALSPHERE 2 1 00902U 64063E 12038.92312939 .00000075 00000-0 10000-3 0 6333 2 00902 90.1463 344.9793 0018461 333.2214 26.7982 13.52510914147909 LCS 1 1 01361U 65034C 12038.92297916 .00000009 00000-0 10000-3 0 3984 2 01361 32.1444 26.1814 0008621 194.4094 165.6158 9.89282004690998 TEMPSAT 1 1 01512U 65065E 12038.71749342 .00000059 00000-0 10000-3 0 6683 2 01512 89.7884 281.2083 0068362 209.6411 150.0846 13.33294469261284 CALSPHERE 4(A) 1 01520U 65065H 12039.21683850 .00000061 00000-0 10000-3 0 8404 2 01520 90.1628 99.7004 0071851 124.2473 236.5501 13.35421091263170 OPS 5712 (P/L 160) 1 02826U 67053A 12039.28206440 .00001183 00000-0 39303-3 0 5305 2 02826 69.9313 104.8114 0010433 255.4556 104.5412 14.40136330306262 OPS 5712 (P/L 153) 1 02874U 67053H 12038.89317325 .00000026 00000-0 57422-4 0 9918 2 02874 69.9673 185.0265 0007816 178.7151 181.3974 13.96011838275313 SURCAL 150B 1 02909U 67053J 12039.87255851 .00001542 00000-0 42297-3 0 7219 2 02909 69.9530 250.1745 0001902 319.8538 40.2454 14.48904759312834 RIGIDSPHERE 2 (LCS 4) 1 05398U 71067E 12039.48324510 .00000316 00000-0 10972-3 0 3882 2 05398 87.6287 344.3902 0063002 241.6771 117.8055 14.31677665122782 RADCAT 1 06212U 72076A 12039.46351501 .00044324 00000-0 66467-3 0 5448 2 06212 98.5722 217.2376 0002346 247.6509 112.4440 15.54809819271053